CAPE
22 70 41 38 26 13 21 8 83 69 90 59 127 72 360 465 639 409 497 526 725 1064 1232 567 1093 1465 1773 1791 1939 2019 2032 2118 2343 2902 3041 2920 3573 3415 2969 2973 2706 2556 2573 2460
103 145 30 19 8 0 0 0 2 4 37 24 125 72 58 511 469 470 289 165 291 511 726 1047 586 999 1520 1390 1754 2152 2162 2164 2812 3418 3243 3499 3830 3311 3405 3350 3504 3340 2763 2857
149 127 88 47 0 0 3 0 0 5 5 26 118 204 260 546 341 141 81 177 189 514 811 1058 844 732 429 636 681 1657 2165 2603 2487 3104 3337 3354 3423 3594 3779 3661 3687 3867 3409 3036
178 178 101 81 27 16 3 3 4 4 3 61 86 318 497 284 10 65 140 224 631 665 833 1053 1030 884 802 346 493 510 1095 1672 2257 2738 2763 3146 3006 3185 3697 3342 3522 3575 3646 3682
212 130 110 122 33 1 0 0 0 0 2 19 37 519 483 69 79 203 305 551 646 551 849 944 684 771 643 652 1291 698 836 1305 1294 1633 2025 2510 2377 2997 3456 2934 3427 2747 3238 3437
119 98 82 122 71 14 0 0 1 0 0 31 389 579 636 245 149 142 337 458 527 559 569 600 725 907 664 730 795 731 746 889 916 1252 1075 1200 1659 2348 3007 3148 3112 3086 2778 2681
237 174 101 55 3 3 8 189 184 0 0 224 529 536 520 243 239 246 313 409 440 353 343 453 460 516 499 560 652 713 1076 580 389 161 502 819 1053 2016 1925 1808 1478 1390 1159 1147
126 202 76 36 22 95 316 217 213 64 132 602 1013 656 474 428 373 284 247 295 231 310 307 458 485 407 561 609 863 953 885 675 163 56 299 167 179 512 1029 1480 1149 651 527 508
90 201 614 191 77 166 103 93 328 536 605 884 965 463 413 370 225 166 155 158 25 5 254 429 437 366 624 713 577 876 759 534 197 63 150 164 135 121 101 155 162 36 39 109
41 15 44 54 79 32 147 78 247 413 515 738 330 364 275 175 107 130 179 270 115 73 127 274 435 299 429 444 310 286 649 435 333 108 13 128 85 81 76 87 60 35 19 39
61 98 84 226 68 119 174 97 175 194 395 460 299 205 137 90 119 176 348 470 321 288 258 295 372 376 335 400 191 282 483 354 289 80 4 3 0 4 34 53 64 34 7 7
17 242 281 439 231 159 211 211 179 242 230 262 170 175 203 231 554 560 603 895 812 698 493 415 400 407 273 314 68 126 297 247 249 103 115 36 8 3 0 3 6 1 0 0
251 249 87 101 278 52 280 302 215 210 340 516 642 391 391 827 890 1001 1069 1245 1151 1002 727 561 467 422 262 220 198 21 192 351 345 89 90 113 118 92 11 51 53 35 31 26
184 75 80 137 292 226 281 302 157 231 410 428 472 382 334 468 986 1244 1319 1262 1155 925 660 470 365 309 323 308 348 76 183 125 286 116 52 67 62 81 57 63 83 99 68 43
161 61 35 78 367 328 291 207 295 326 313 313 231 187 234 348 605 897 1110 1118 952 684 535 441 386 290 254 307 435 154 192 161 266 215 83 71 34 53 49 61 80 119 148 113
156 122 50 21 135 191 163 100 76 55 147 141 94 109 168 247 371 582 653 684 698 575 614 505 273 304 367 455 504 350 254 295 341 235 276 231 144 81 64 79 91 109 97 166
189 109 233 59 94 155 149 96 81 78 78 78 110 132 166 213 306 459 558 568 635 538 473 543 374 453 386 567 683 462 331 274 349 400 215 223 234 238 200 96 88 86 138 103
86 208 112 144 132 174 207 143 201 205 198 214 223 263 246 239 339 446 647 631 677 626 556 557 376 350 225 780 716 650 505 457 418 385 224 198 191 189 114 103 62 97 83 107
221 97 185 220 138 192 258 256 257 321 457 358 312 332 299 297 408 714 691 720 683 630 552 636 325 156 154 110 143 471 344 246 218 123 100 66 72 40 18 0 0 0 2 2
137 201 128 99 130 158 201 417 463 520 553 465 386 347 391 395 526 695 721 705 499 384 514 559 502 380 426 293 52 119 153 130 91 42 8 4 0 0 0 0 0 0 0 0
309 139 98 64 114 287 58 217 438 386 584 597 504 471 538 536 649 750 651 353 341 298 380 189 205 285 419 322 1 68 163 125 146 120 66 13 4 0 0 0 0 1 2 0
605 577 227 151 211 209 175 271 449 536 834 670 481 499 640 721 835 833 603 272 159 65 181 174 64 108 258 1 0 31 84 73 93 75 37 0 14 2 12 5 0 3 5 3
758 665 675 331 252 244 271 458 496 753 710 641 609 568 768 654 778 674 588 563 26 98 30 25 4 0 0 21 44 64 136 92 50 37 14 7 17 15 22 29 33 24 21 19
702 854 775 773 701 620 716 785 630 599 702 633 580 672 774 628 535 392 202 17 1 16 15 4 0 0 0 2 49 104 66 34 14 19 17 7 46 78 66 58 30 35 40 19
366 545 896 875 898 1031 1072 800 529 586 603 382 599 909 780 467 229 196 100 34 0 0 0 0 0 0 14 0 0 0 24 52 93 51 39 28 26 33 55 258 174 127 84 46
201 202 356 744 1009 636 557 610 325 326 324 222 271 388 377 271 157 34 14 0 53 0 0 31 72 59 18 0 0 0 1 9 20 19 23 20 28 33 40 42 42 138 207 182
329 178 466 533 605 658 546 684 414 263 141 95 182 178 139 134 17 2 40 101 3 19 0 0 89 49 31 0 0 3 24 38 6 16 9 54 77 151 129 347 132 71 198 262
CIN
-14 -2 -8 -11 -8 0 -22 -6 -3 -3 -1 0 -16 -11 0 0 0 -1 0 -1 0 0 -18 -51 -5 0 0 0 0 0 -3 -1 0 0 0 0 0 0 0 0 0 0 0 0
-1 -4 -1 -1 -1 0 0 0 0 0 0 0 -39 -8 -8 0 -2 -1 -2 -18 -8 -4 -5 -15 -65 -15 0 -1 0 0 0 0 -1 0 0 0 0 0 0 0 0 0 0 0
0 -7 0 -1 0 0 0 0 0 0 -1 -1 -35 -1 -5 0 -12 -21 -22 -26 -38 -19 -11 -7 -21 -23 -42 -19 -10 -1 0 -1 0 0 0 0 0 0 0 0 0 0 0 0
0 0 0 -1 -1 -2 0 -1 0 0 0 -42 -9 -1 -1 -9 -15 -26 -28 -39 -39 -29 -16 -10 -4 -1 -6 -18 -14 -20 -12 -2 -2 0 0 0 0 0 0 0 0 0 0 0
0 0 -1 -6 0 -8 0 0 0 0 -1 -1 -5 -1 0 -18 -11 -21 -32 -42 -43 -61 -48 -24 -30 -8 -7 -2 -1 -4 -3 0 -1 0 -1 0 0 0 0 0 0 0 0 0
0 0 0 -4 -3 -3 0 0 0 0 0 0 0 0 0 -29 -25 -43 -36 -39 -55 -62 -65 -33 -31 -7 -5 0 0 0 0 0 0 0 0 0 0 0 0 0 0 0 0 0
0 0 0 -1 -5 -24 -2 -1 -4 0 0 0 0 -18 -16 -23 -29 -41 -50 -60 -69 -68 -56 -37 -29 -21 -28 -10 -2 0 0 -2 -6 -43 -16 -1 0 0 0 0 -1 0 -1 -6
0 0 -2 -2 -21 -4 -6 -8 -1 -20 -2 -1 -7 -17 -23 -26 -39 -49 -56 -72 -62 -45 -36 -28 -30 -32 -15 -10 -1 0 0 -1 -74 -107 -23 -39 -34 -5 0 0 0 0 0 -1
-1 0 -77 -4 0 -1 -10 -1 0 -1 0 -1 -6 -8 -15 -24 -39 -47 -51 -59 -41 -7 -19 -4 -22 -43 -7 -5 -11 0 0 -3 -56 -103 -53 -35 -25 -27 -10 -2 -7 -36 -30 -10
-34 -7 -1 -2 0 -3 -1 -1 -1 -1 -1 -1 -7 -10 -22 -21 -35 -34 -26 -13 -28 -32 -16 -6 -8 -28 -19 -16 -34 -33 0 -2 -17 -72 -140 -52 -40 -28 -34 -26 -11 -19 -17 0
-1 -6 -46 -1 -12 -2 0 -2 -2 0 -1 -1 -1 0 -1 -9 -17 -9 0 0 -3 -6 -5 -9 -14 -17 -20 -16 -34 -27 -3 -10 -12 -65 -12 -44 0 -21 -62 -17 -3 -4 -26 -20
-8 -11 -10 -6 -3 -16 -2 -6 -1 -1 0 0 -5 -4 0 -1 -3 -6 0 0 0 -4 -3 -2 -6 -6 -23 -21 -62 -40 -17 -19 -16 -56 -52 -28 -7 -9 0 -57 -42 0 0 0
-1 0 0 -1 -9 -5 -18 -1 0 -2 0 0 -20 -11 -1 0 -1 -4 0 0 0 0 0 0 0 0 -13 -16 -28 -69 -17 -3 0 -32 -47 -37 -28 -9 -15 0 -1 -6 -33 -27
-6 -7 -18 -7 -1 -2 -5 -1 -19 -5 -21 -23 -16 -24 -14 -9 -3 -1 0 0 0 0 0 0 0 -1 -1 -1 -5 -53 -19 -22 -1 -12 -41 -42 -40 -25 -13 -17 -14 -5 -2 -9
0 -7 -3 -1 -25 0 0 -12 -22 -26 -25 -25 -34 -32 -32 -24 0 -2 0 0 0 0 0 -1 0 -1 -3 0 0 -27 -25 -30 -4 -6 -19 -29 -40 -27 -53 -33 -18 -7 0 0
-1 -12 -1 -21 0 0 0 -12 -14 -23 -27 -27 -34 -33 -19 -3 0 0 0 0 0 0 0 0 0 0 -1 0 0 -5 -17 -7 -3 -5 0 -4 -23 -34 -33 -33 -27 -27 -10 0
-5 0 -1 -1 0 -1 0 -8 -15 -19 -29 -41 -30 -9 -5 0 0 0 0 0 0 0 0 0 0 -3 -5 0 0 -5 -13 -19 -3 0 -26 -15 -1 0 -1 -11 -18 -17 0 0
0 -1 0 0 0 0 -1 0 -4 -23 -27 -19 -13 -8 -6 -6 -6 0 0 0 0 0 0 -3 -33 -35 -58 0 0 -1 -1 -1 -3 -2 -24 -13 -4 0 0 0 0 -1 0 0
-1 -1 0 0 0 -1 -10 -6 -15 -5 -11 -15 -19 -16 -9 0 0 0 0 0 0 0 -3 -7 -69 -109 -100 -112 -78 -2 -5 -6 -11 -28 -32 -47 -27 -31 -10 0 0 0 -13 0
0 0 -6 -2 -14 -13 -13 -6 0 -1 -12 -11 -21 -20 -9 0 0 0 0 0 0 -1 -3 -24 -27 -47 -33 -67 -100 -57 -19 -21 -36 -78 -147 -128 -38 0 0 0 0 0 0 0
0 -7 -9 -8 -6 -9 -8 -7 -6 -7 -13 -15 -22 -16 -7 0 0 0 0 -2 -13 -30 -10 -72 -74 -48 -22 -38 -105 -90 -19 -22 -17 -25 -59 -105 -59 0 0 0 0 0 0 0
0 0 -1 0 0 -1 0 -1 -6 -7 -16 -23 -19 -10 -2 0 0 0 0 -1 -23 -85 -46 -56 -131 -105 -51 -38 0 -55 -29 -38 -33 -43 -64 0 -59 0 0 0 0 0 0 0
0 0 0 -1 -1 -1 0 0 0 -9 -20 -20 -17 -9 0 0 0 0 0 -4 -82 -84 -92 -106 -27 0 0 -107 -64 -48 -30 -44 -70 -78 -34 0 -104 -70 0 -27 -51 0 0 0
0 0 0 -1 0 0 0 -4 0 -13 -13 -15 -11 -3 0 0 0 0 0 -105 -5 -151 -134 -8 0 0 0 -11 -84 -48 -63 -60 0 0 0 -5 -39 -33 -29 -37 0 0 -7 -4
-14 -1 0 -1 -5 0 -7 -13 -2 -8 -11 -8 0 0 0 0 -5 -8 -29 -80 0 0 0 0 0 0 -196 0 0 0 -125 -73 -55 -76 -84 -16 -17 0 -47 -6 -4 -5 -34 0
-28 -19 -17 -11 -3 0 0 -1 0 0 0 -1 -4 -1 -1 -8 -18 -87 -106 0 -83 -34 0 -121 -100 -123 -156 0 0 0 0 -49 -102 -74 -42 0 0 -39 -36 -38 -1 -13 -7 -2
-3 -28 -7 -1 0 0 0 -12 -1 0 -10 -4 0 -1 -6 -12 -56 -1 -65 -26 -112 -121 -12 0 -57 -114 -100 0 0 0 -5 -64 -3 -81 -12 -20 -37 -13 -21 -1 -12 -11 -1 -3
Wind_Speed
nan nan nan nan nan nan nan nan nan nan nan nan 38 nan 21 18 21 16 17 14 19 23 21 24 21 17 23 20 25 22 21 22 22 19 17 14 14 14 13 12 12 10 11 12
11 10 nan nan nan nan nan nan nan nan nan nan 41 nan nan 22 21 17 17 16 13 16 18 20 23 26 28 28 28 31 25 20 20 24 23 21 20 18 18 16 16 16 13 14
12 11 nan nan nan nan nan nan nan nan nan nan 36 21 21 25 20 19 nan 17 14 14 15 20 19 24 26 31 31 36 38 29 22 22 24 24 26 24 22 21 21 20 20 18
14 11 12 nan nan nan nan nan nan nan nan nan nan 24 23 24 nan nan 20 19 18 17 17 19 20 17 25 30 31 33 39 42 35 30 26 27 29 26 24 23 23 24 24 25
21 20 15 11 nan nan nan nan nan nan nan nan nan 30 26 nan nan 22 21 23 24 23 22 19 20 23 18 20 29 28 32 35 41 37 34 29 29 27 28 28 27 25 25 25
21 nan nan 18 nan nan nan nan nan nan nan nan 23 20 28 26 27 25 23 25 23 25 24 21 20 17 19 17 15 21 33 33 33 36 36 36 33 30 29 29 28 31 28 27
22 11 17 nan nan nan nan 22 25 nan nan 27 20 16 35 33 28 27 27 26 24 21 22 23 23 24 21 23 20 21 20 31 34 29 37 40 42 42 39 38 40 41 43 42
28 27 nan nan nan nan 33 32 27 nan 24 23 35 30 33 35 32 31 29 28 23 25 26 25 24 20 20 22 21 23 22 26 31 nan 35 37 39 46 44 42 41 44 44 45
nan 24 45 32 nan 23 24 nan 25 26 27 31 27 28 31 34 33 28 25 23 nan nan 25 22 21 18 16 22 22 21 25 31 27 nan 34 36 44 48 52 50 49 nan nan 49
nan nan nan nan nan nan 30 nan 22 27 28 29 24 26 28 30 27 27 25 23 22 nan 22 21 22 21 20 20 21 23 20 28 29 30 nan 35 nan nan nan nan nan nan nan nan
nan nan nan 37 nan 32 26 nan 27 26 34 27 26 30 27 nan 26 24 22 21 21 21 23 25 24 25 22 26 25 27 26 26 28 nan nan nan nan nan nan nan nan nan nan nan
nan 35 34 43 45 39 26 27 26 29 31 28 24 28 26 26 25 22 21 20 21 22 25 28 29 31 33 32 nan 32 30 27 29 32 33 nan nan nan nan nan nan nan nan nan
16 17 nan 39 38 nan 31 33 30 27 32 30 26 24 24 22 21 22 18 20 21 22 26 29 30 34 35 35 39 nan 38 35 32 nan nan 29 32 nan nan nan nan nan nan nan
24 nan nan 35 31 41 29 29 31 35 34 32 29 26 26 21 29 20 19 21 24 25 29 32 32 38 38 35 41 nan 41 41 33 31 nan nan nan nan nan nan nan nan nan nan
22 nan nan nan 41 28 35 29 29 29 29 31 30 27 22 19 21 21 24 25 27 25 25 25 20 28 30 29 34 37 39 36 32 32 nan nan nan nan nan nan nan 17 17 20
23 29 nan nan 25 25 19 19 nan nan 28 26 nan 18 17 17 18 21 22 19 16 19 25 23 23 27 27 24 22 27 29 34 28 30 36 40 37 nan nan nan nan 18 nan 18
22 26 30 nan nan 16 18 nan nan nan nan nan 19 18 16 17 19 19 17 19 18 21 21 24 23 27 22 22 20 25 25 27 24 28 31 38 37 34 36 nan nan nan 25 23
nan 20 28 30 22 22 23 22 23 19 14 15 16 17 18 16 16 17 17 19 22 23 23 25 24 22 17 21 22 20 20 23 23 27 30 28 24 28 32 33 nan nan nan 27
19 nan 20 20 21 25 25 20 14 15 14 16 16 17 17 16 16 18 20 22 22 19 19 25 25 11 15 14 5 9 11 13 22 23 21 nan nan nan nan nan nan nan nan nan
15 18 21 nan 20 23 24 20 14 16 10 11 15 14 13 11 14 14 15 14 13 11 20 24 17 10 14 18 nan 5 13 13 nan nan nan nan nan nan nan nan nan nan nan nan
17 13 nan nan 21 23 nan 20 13 13 10 11 9 7 6 6 9 12 11 10 18 14 8 24 12 10 14 17 nan nan 13 11 11 10 nan nan nan nan nan nan nan nan nan nan
15 14 13 15 20 23 25 20 15 17 13 9 5 4 5 8 9 9 6 5 14 nan 11 13 nan 9 13 nan nan nan nan nan nan nan nan nan nan nan nan nan nan nan nan nan
23 19 13 11 10 12 18 19 20 17 14 10 7 4 4 5 7 6 8 12 nan nan nan nan nan nan nan nan nan nan 7 nan nan nan nan nan nan nan nan nan nan nan nan nan
21 20 19 17 17 18 19 20 21 20 16 14 10 7 6 4 6 7 4 nan nan nan nan nan nan nan nan nan nan 5 nan nan nan nan nan nan nan nan nan nan nan nan nan nan
19 18 22 16 10 16 21 20 22 22 20 16 15 11 6 5 6 9 13 nan nan nan nan nan nan nan nan nan nan nan nan nan nan nan nan nan nan nan nan 12 12 11 nan nan
23 18 20 20 22 17 14 19 19 19 19 18 17 13 11 11 12 nan nan nan nan nan nan nan nan nan nan nan nan nan nan nan nan nan nan nan nan nan nan nan nan 11 14 12
12 28 21 21 20 21 24 23 17 17 19 nan 19 20 17 18 nan nan nan 20 nan nan nan nan nan nan nan nan nan nan nan nan nan nan nan nan nan 14 15 11 13 nan 15 17
Wind_Direction
nan nan nan nan nan nan nan nan nan nan nan nan 277 nan 313 314 303 284 279 273 267 275 267 234 234 234 230 231 230 237 228 230 259 252 255 243 252 256 246 239 246 247 257 259
275 156 nan nan nan nan nan nan nan nan nan nan 275 nan nan 304 303 291 276 268 270 275 269 270 240 230 233 227 231 232 233 226 226 258 257 253 250 250 260 256 249 251 239 248
216 223 nan nan nan nan nan nan nan nan nan nan 272 294 295 297 298 283 nan 260 261 262 270 265 266 255 238 228 219 224 223 222 232 240 254 260 258 255 259 264 262 261 261 252
223 239 241 nan nan nan nan nan nan nan nan nan nan 289 288 291 nan nan 266 265 261 255 261 269 270 267 257 238 233 238 224 223 226 239 253 258 263 259 260 262 262 260 262 261
228 209 232 257 nan nan nan nan nan nan nan nan nan 285 284 nan nan 275 273 267 262 260 255 255 255 244 245 242 246 243 239 235 229 234 235 246 257 250 252 254 255 258 256 258
233 nan nan 163 nan nan nan nan nan nan nan nan 285 296 290 290 278 275 277 278 278 270 268 265 262 247 241 241 253 239 236 237 235 232 233 234 234 243 246 250 254 253 258 262
233 222 213 nan nan nan nan 242 227 nan nan 280 293 246 277 285 276 272 273 278 278 276 266 257 251 246 243 235 231 245 249 247 239 239 230 230 230 234 241 247 250 259 254 254
223 204 nan nan nan nan 234 238 242 nan 274 284 269 276 272 274 275 274 278 281 280 275 269 267 258 252 244 249 251 256 249 252 248 nan 245 238 234 237 235 240 254 253 252 256
nan 242 216 233 nan 242 221 nan 259 272 273 275 277 279 282 278 282 287 286 276 nan nan 271 267 264 259 250 262 252 252 268 258 251 nan 239 240 237 244 248 253 252 nan nan 258
nan nan nan nan nan nan 239 nan 263 280 278 285 293 289 287 285 284 282 282 279 273 nan 260 252 263 268 268 263 266 259 264 272 262 260 nan 250 nan nan nan nan nan nan nan nan
nan nan nan 204 nan 232 240 nan 253 261 282 294 298 294 288 nan 278 282 286 276 269 263 253 253 259 267 277 277 271 272 269 268 271 nan nan nan nan nan nan nan nan nan nan nan
nan 215 208 198 213 232 232 238 248 264 274 280 281 289 288 275 277 279 283 273 266 261 257 257 260 267 272 274 nan 275 270 268 265 267 265 nan nan nan nan nan nan nan nan nan
221 213 nan 193 203 nan 232 259 252 264 273 280 275 281 291 276 278 277 270 273 275 273 274 272 270 273 271 274 279 nan 274 270 266 nan nan 262 265 nan nan nan nan nan nan nan
229 nan nan 209 221 239 252 247 241 255 263 268 276 276 282 267 274 275 276 281 289 294 290 286 282 279 274 272 271 nan 268 267 258 255 nan nan nan nan nan nan nan nan nan nan
212 nan nan nan 214 229 245 247 256 257 259 271 284 286 270 263 273 280 286 289 291 293 289 289 295 290 285 275 274 271 266 262 253 247 nan nan nan nan nan nan nan 239 236 230
204 178 nan nan 194 229 239 238 nan nan 270 281 nan 270 253 273 285 288 290 291 295 293 289 299 303 296 284 277 276 268 265 265 258 255 253 249 251 nan nan nan nan 263 nan 275
208 216 210 nan nan 208 216 nan nan nan nan nan 283 252 263 291 293 288 286 290 292 296 301 298 302 300 301 285 275 267 265 265 261 250 254 259 255 260 269 nan nan nan 276 275
nan 192 189 197 218 231 229 243 247 237 255 278 280 264 275 281 286 287 298 296 299 302 298 296 299 309 322 304 282 268 265 265 263 267 274 267 264 270 278 283 nan nan nan 292
189 nan 198 194 211 220 216 231 237 227 246 273 279 284 282 274 284 295 301 303 307 308 311 308 291 306 320 314 328 312 298 288 264 261 271 nan nan nan nan nan nan nan nan nan
203 217 209 nan 227 210 209 204 204 239 252 269 283 286 285 277 285 302 311 320 323 315 316 308 312 319 313 296 nan 291 291 295 nan nan nan nan nan nan nan nan nan nan nan nan
213 210 nan nan 240 221 nan 223 235 219 239 268 283 291 304 320 307 307 319 348 340 314 318 313 337 315 306 298 nan nan 287 283 276 265 nan nan nan nan nan nan nan nan nan nan
204 204 222 235 244 237 243 240 229 211 232 241 246 299 343 338 320 320 334 357 343 nan 342 336 nan 348 323 nan nan nan nan nan nan nan nan nan nan nan nan nan nan nan nan nan
219 220 219 241 235 221 218 210 209 222 229 226 232 258 322 321 325 339 340 343 nan nan nan nan nan nan nan nan nan nan 62 nan nan nan nan nan nan nan nan nan nan nan nan nan
218 228 228 214 211 213 212 220 227 225 224 224 225 242 276 279 306 317 305 nan nan nan nan nan nan nan nan nan nan 53 nan nan nan nan nan nan nan nan nan nan nan nan nan nan
214 212 233 220 232 226 221 215 217 224 228 218 240 239 256 252 222 257 286 nan nan nan nan nan nan nan nan nan nan nan nan nan nan nan nan nan nan nan nan 312 330 327 nan nan
222 219 200 207 191 208 215 217 205 228 233 233 244 248 254 255 261 nan nan nan nan nan nan nan nan nan nan nan nan nan nan nan nan nan nan nan nan nan nan nan nan 309 303 303
238 224 212 202 200 202 198 213 221 226 245 nan 254 259 257 260 nan nan nan 283 nan nan nan nan nan nan nan nan nan nan nan nan nan nan nan nan nan 306 296 301 309 nan 297 299